Wind_Speed
36 36 34 32 32 31 29 26 24 22 20 18 17 17 18 18 18 17 16 16 16 17 18 19 18 15 14 15 13 11 13 13 13 14 14 14 15 15 15 14 12 12 11
40 40 38 38 35 35 34 33 31 29 28 27 24 21 22 22 22 20 19 17 17 18 18 19 19 18 15 16 18 16 14 13 14 14 15 14 14 14 13 14 15 14 12
48 44 41 40 40 38 36 36 36 35 34 33 33 31 27 26 27 26 24 22 21 21 21 21 20 21 19 16 18 20 18 17 16 16 17 18 18 16 15 15 15 15 15
50 49 48 44 41 41 42 41 41 40 39 40 39 37 34 31 31 31 29 27 25 24 25 24 24 23 23 20 19 19 22 23 22 21 21 21 21 21 20 20 18 17 17
42 46 48 48 45 45 45 46 46 46 47 45 42 42 40 36 35 34 31 29 28 27 27 27 27 26 25 25 23 22 22 24 25 25 25 25 24 24 23 22 23 22 20
37 39 44 47 49 49 50 49 50 50 48 46 46 44 42 39 37 36 34 35 32 31 31 30 29 30 30 28 27 25 24 25 26 25 28 29 28 27 26 26 26 25 24
32 33 34 36 38 40 44 49 51 51 49 49 48 46 44 42 41 39 36 36 34 34 34 34 33 32 32 32 31 30 29 28 29 27 29 30 31 31 31 30 30 30 28
35 36 35 34 34 34 31 38 43 46 49 54 49 49 46 45 43 43 41 40 39 39 38 39 38 36 36 35 35 35 34 33 32 31 31 31 32 34 34 34 34 34 34
35 35 35 35 35 33 32 30 33 40 43 47 50 51 50 48 45 45 46 45 44 43 43 43 42 41 39 40 39 38 38 38 37 36 36 36 37 38 37 36 36 36 36
42 41 39 38 36 35 34 34 32 31 40 45 44 50 50 49 49 50 49 49 48 47 48 47 46 46 44 43 43 43 43 41 41 42 42 41 41 39 40 40 37 39 40
48 46 44 44 42 40 39 37 36 35 33 37 43 44 46 46 44 49 50 51 53 52 51 50 49 49 48 46 46 47 47 47 46 46 45 45 45 45 44 44 46 46 47
56 53 51 49 48 47 46 42 40 40 39 38 39 40 44 46 47 46 49 48 48 50 51 52 52 51 51 52 51 51 51 51 51 49 50 51 52 53 52 51 49 51 52
61 60 59 57 55 53 53 51 49 46 43 41 43 42 42 41 39 44 48 50 49 48 45 43 44 45 48 52 55 57 58 58 59 60 59 58 58 57 58 57 56 56 56
66 65 65 63 62 61 59 59 58 56 51 47 45 46 44 43 41 40 43 45 48 50 43 36 33 35 40 42 44 45 48 52 53 55 56 58 59 58 58 58 58 58 59
71 72 71 69 68 67 67 67 65 64 61 57 53 50 49 48 46 47 46 43 42 44 45 43 44 44 43 42 42 43 44 43 43 46 47 47 48 49 51 51 49 48 47
80 79 79 79 76 75 74 70 70 69 69 66 62 57 54 52 53 51 52 51 47 45 45 49 51 49 47 48 48 47 45 44 44 42 42 40 41 43 43 39 36 36 39
90 89 85 85 86 84 83 80 79 76 76 73 71 65 58 59 55 56 56 55 56 53 51 51 52 52 51 49 50 47 47 45 43 41 41 40 39 40 38 37 39 39 42
92 93 92 91 89 89 89 88 86 84 82 81 80 77 72 71 68 61 62 59 60 59 62 59 57 54 53 49 49 50 49 46 46 45 46 45 46 46 42 44 44 44 42
97 97 96 96 93 91 93 94 92 91 88 87 86 85 84 82 81 75 67 62 65 64 65 63 63 63 59 57 56 54 52 52 52 52 50 50 51 49 47 46 47 45 44
101 102 102 101 100 96 95 95 94 92 91 91 93 90 90 87 86 86 82 73 70 68 69 68 68 67 68 64 62 60 58 56 53 53 55 52 52 53 51 55 51 50 48
91 93 98 102 105 105 103 100 101 101 100 98 96 97 96 94 91 90 89 86 84 78 74 72 73 71 67 65 66 64 64 60 55 56 56 52 53 57 56 58 56 54 54
88 89 91 94 97 103 107 110 109 109 108 107 105 103 100 97 98 95 93 91 90 89 89 84 74 74 74 73 70 67 64 64 59 58 56 53 56 59 61 61 61 60 59
91 93 93 93 95 99 105 106 107 108 109 110 110 107 108 104 102 100 96 95 94 94 94 92 87 83 79 78 75 75 73 70 67 62 63 62 63 63 65 65 65 66 65
95 94 90 89 91 93 96 101 102 101 103 107 107 108 108 108 104 102 100 97 95 94 93 95 93 91 90 85 82 82 82 79 80 77 72 69 72 70 70 70 70 68 68
80 81 86 85 85 89 91 96 100 100 101 102 103 103 106 110 108 103 102 101 97 97 95 97 96 95 92 94 95 92 92 87 83 94 79 78 76 78 76 77 76 75 76
67 68 71 76 78 80 81 85 91 94 94 94 95 96 98 102 104 103 104 103 102 101 100 99 97 99 101 102 99 95 97 96 95 97 89 84 81 82 82 81 81 82 80
Wind_Direction
252 250 247 248 253 255 257 257 258 263 257 262 263 269 273 275 278 283 284 285 288 293 295 299 304 312 316 316 315 312 310 307 310 316 320 328 336 340 339 337 333 326 319
252 252 246 246 247 252 256 259 259 262 262 259 261 264 268 266 264 272 279 280 280 284 289 291 298 303 311 310 309 313 314 313 309 313 314 318 323 325 329 326 322 320 312
252 249 248 248 247 247 254 259 260 259 261 262 263 265 266 265 264 265 270 274 277 278 280 285 291 296 302 304 301 304 305 304 303 310 316 319 318 317 319 320 319 313 307
252 249 248 249 248 247 254 258 257 258 260 259 259 263 260 261 262 262 266 267 270 274 275 280 283 287 291 295 297 294 296 302 301 304 308 313 321 321 318 317 318 312 307
251 250 248 250 251 252 257 257 256 256 260 260 255 258 258 259 256 256 257 259 267 268 269 276 277 282 283 285 291 292 289 285 291 299 302 305 307 310 312 317 318 317 310
253 252 249 249 252 255 257 257 256 259 258 259 256 255 254 255 250 249 252 257 261 263 264 266 271 278 280 280 284 286 286 284 282 288 291 296 299 303 306 310 310 313 313
255 252 248 251 255 256 254 255 254 255 256 257 257 255 254 253 251 246 249 256 258 260 261 265 267 267 270 272 274 278 282 281 281 283 286 290 292 294 296 297 301 303 306
254 255 254 253 257 258 257 254 254 252 254 253 254 255 255 253 255 250 250 252 254 255 259 261 263 266 268 268 268 270 274 276 280 280 280 283 287 288 289 290 292 295 297
255 260 260 259 261 263 263 262 258 253 252 256 253 254 254 255 256 257 254 256 257 258 258 259 261 262 263 266 268 268 268 268 272 276 278 279 279 282 282 281 282 285 290
255 258 262 264 263 265 265 264 265 262 254 254 255 255 257 257 259 259 259 260 259 260 262 262 263 265 267 265 266 269 271 270 268 271 274 278 281 284 282 281 281 283 288
257 257 259 263 265 265 265 267 265 264 265 259 255 257 258 258 259 259 259 259 261 263 263 263 264 266 267 267 265 266 267 269 272 273 274 276 276 277 277 278 277 280 285
260 260 261 263 264 267 268 266 267 266 263 265 263 259 258 259 259 256 256 257 260 263 265 266 266 265 266 266 268 268 268 268 269 270 272 274 276 278 279 280 280 281 283
262 263 263 262 265 266 267 268 267 264 265 264 264 262 260 259 260 255 253 254 256 258 262 266 267 266 265 266 267 269 269 271 272 274 275 274 275 277 279 282 282 282 283
258 260 262 263 263 266 268 269 270 267 265 264 263 262 262 258 258 256 256 256 255 257 253 250 259 262 262 265 268 269 270 270 273 274 275 274 276 278 280 280 279 282 283
258 260 260 261 262 262 264 266 267 269 267 265 262 260 260 260 256 255 255 255 256 254 248 247 251 255 259 261 265 269 272 275 278 278 277 276 275 278 280 282 285 283 285
258 260 260 261 261 261 261 261 264 265 266 266 265 263 260 257 256 257 256 255 254 255 257 254 256 259 262 263 268 270 272 276 279 281 278 277 278 279 280 282 285 286 284
259 259 257 259 261 259 260 260 261 261 263 265 265 261 260 260 255 255 256 256 256 256 254 255 260 261 262 265 269 269 271 275 274 273 274 275 272 276 278 282 286 283 285
261 262 262 262 261 261 259 258 259 258 259 261 263 264 263 263 261 258 253 255 256 258 258 258 260 261 258 259 265 269 270 270 271 271 269 272 273 274 280 278 285 284 285
260 259 262 262 259 260 258 258 257 256 256 257 257 259 261 261 263 262 257 254 256 257 255 258 259 260 264 260 260 263 269 267 266 270 270 271 274 278 280 280 285 284 287
258 259 260 260 261 259 257 257 257 255 255 256 258 258 259 259 259 262 262 260 256 256 256 256 256 257 260 263 262 261 263 265 268 270 271 274 276 280 282 285 286 286 285
261 259 258 258 258 259 259 256 257 256 257 258 258 257 256 257 257 257 258 260 259 258 256 256 256 257 257 260 262 264 263 263 263 265 268 274 278 280 283 285 287 286 288
264 264 261 260 259 259 258 258 256 257 257 258 257 256 255 254 256 255 255 256 257 258 258 258 257 258 257 258 258 260 260 262 259 261 265 268 273 276 278 281 284 286 287
266 264 262 259 257 256 259 259 259 258 257 257 257 256 257 256 254 254 253 253 253 255 259 259 259 258 260 258 259 260 262 263 259 256 261 266 271 273 275 279 282 283 285
267 267 266 265 265 262 259 260 261 261 260 259 257 255 256 257 255 253 251 252 252 252 254 258 260 261 260 261 261 262 262 263 267 262 259 264 269 272 274 277 278 282 284
273 273 269 268 266 263 260 260 261 260 259 260 258 255 255 257 256 254 252 251 251 250 251 255 258 260 262 262 263 264 264 265 265 266 265 265 265 268 273 276 280 281 281
273 274 272 271 270 269 268 264 263 262 261 260 259 258 257 255 255 255 255 254 252 251 251 252 255 258 261 260 261 263 264 265 265 266 267 267 266 270 272 277 281 281 280
Height
10886 10888 10890 10892 10894 10895 10895 10897 10898 10900 10901 10902 10903 10905 10906 10906 10907 10907 10907 10908 10908 10908 10909 10908 10908 10908 10908 10907 10906 10906 10907 10906 10906 10905 10904 10904 10903 10902 10900 10899 10899 10898 10897
10881 10883 10885 10887 10888 10889 10890 10891 10893 10895 10897 10898 10899 10901 10903 10903 10904 10904 10905 10905 10905 10906 10906 10906 10905 10905 10906 10906 10904 10904 10904 10904 10903 10903 10902 10901 10901 10900 10899 10898 10897 10896 10894
10873 10877 10879 10881 10883 10884 10886 10886 10888 10890 10891 10893 10895 10897 10898 10899 10900 10901 10901 10902 10902 10902 10903 10903 10903 10902 10902 10903 10902 10901 10901 10901 10901 10900 10900 10899 10898 10898 10897 10895 10894 10893 10892
10865 10869 10872 10874 10877 10879 10880 10882 10882 10883 10885 10886 10889 10891 10893 10894 10895 10897 10897 10898 10898 10898 10898 10899 10899 10899 10900 10900 10899 10900 10899 10898 10897 10897 10897 10896 10895 10894 10893 10892 10890 10889 10888
10857 10860 10863 10867 10870 10872 10874 10876 10877 10877 10878 10879 10881 10883 10885 10888 10889 10890 10891 10892 10893 10893 10894 10894 10894 10895 10895 10896 10895 10896 10896 10894 10893 10893 10892 10892 10891 10890 10889 10888 10886 10886 10885
10851 10854 10856 10859 10861 10865 10866 10868 10870 10870 10871 10871 10873 10875 10877 10880 10883 10884 10884 10886 10887 10887 10888 10889 10889 10890 10890 10891 10891 10891 10891 10890 10889 10890 10888 10887 10886 10886 10885 10884 10883 10882 10881
10846 10846 10850 10853 10855 10857 10858 10859 10861 10862 10864 10864 10865 10868 10870 10871 10874 10877 10877 10879 10881 10881 10881 10882 10883 10884 10885 10885 10886 10885 10885 10885 10883 10885 10883 10883 10882 10881 10880 10879 10878 10877 10876
10838 10840 10843 10846 10848 10849 10850 10851 10851 10854 10855 10857 10857 10859 10862 10864 10866 10869 10870 10871 10873 10873 10874 10875 10876 10877 10878 10879 10879 10879 10879 10879 10878 10879 10878 10877 10877 10876 10875 10873 10872 10871 10870
10832 10833 10835 10838 10840 10841 10843 10844 10845 10846 10848 10848 10850 10851 10853 10857 10859 10861 10863 10864 10865 10866 10867 10867 10868 10869 10870 10871 10872 10872 10872 10872 10871 10872 10872 10872 10870 10869 10869 10867 10866 10865 10864
10826 10827 10828 10831 10833 10834 10836 10837 10838 10839 10840 10841 10842 10843 10845 10849 10851 10853 10855 10856 10857 10858 10858 10860 10861 10862 10863 10864 10865 10865 10865 10864 10863 10864 10864 10864 10864 10863 10862 10861 10859 10858 10857
10818 10820 10822 10823 10825 10828 10828 10830 10832 10832 10833 10834 10836 10836 10838 10840 10842 10844 10845 10848 10850 10850 10850 10851 10853 10854 10855 10856 10856 10857 10856 10855 10855 10855 10856 10856 10855 10854 10854 10854 10853 10851 10849
10809 10812 10814 10816 10818 10820 10822 10824 10825 10826 10827 10827 10828 10828 10830 10832 10834 10836 10836 10839 10840 10841 10841 10843 10845 10846 10847 10847 10847 10848 10847 10847 10846 10846 10847 10846 10845 10845 10845 10845 10843 10842 10840
10799 10802 10804 10807 10809 10810 10812 10814 10817 10818 10820 10820 10820 10821 10822 10824 10825 10827 10828 10830 10830 10832 10834 10834 10835 10836 10836 10837 10838 10838 10837 10837 10837 10836 10837 10835 10835 10835 10835 10834 10833 10832 10830
10788 10791 10794 10798 10799 10801 10803 10804 10805 10808 10811 10813 10813 10814 10814 10816 10818 10819 10820 10821 10822 10823 10825 10826 10826 10825 10826 10826 10827 10827 10827 10827 10826 10825 10825 10824 10824 10824 10824 10824 10821 10821 10820
10777 10779 10782 10786 10788 10791 10793 10793 10794 10794 10797 10801 10805 10806 10806 10807 10809 10811 10811 10814 10814 10814 10816 10816 10815 10817 10817 10817 10818 10818 10819 10818 10817 10815 10815 10814 10813 10813 10813 10813 10812 10809 10808
10766 10766 10768 10770 10773 10777 10780 10782 10782 10783 10783 10787 10789 10794 10797 10798 10800 10801 10802 10804 10806 10806 10807 10807 10807 10808 10808 10809 10808 10810 10809 10809 10807 10806 10805 10805 10805 10804 10804 10804 10802 10801 10800
10747 10748 10751 10754 10756 10761 10764 10767 10769 10770 10771 10774 10776 10779 10783 10784 10786 10790 10791 10792 10794 10796 10797 10797 10797 10798 10798 10799 10798 10799 10800 10800 10799 10799 10797 10797 10796 10795 10796 10796 10794 10792 10791
10733 10734 10735 10738 10741 10741 10743 10747 10751 10754 10756 10760 10761 10764 10767 10770 10772 10777 10780 10780 10780 10783 10784 10786 10786 10787 10788 10790 10788 10788 10790 10791 10790 10790 10790 10788 10788 10787 10788 10786 10784 10783 10781
10713 10714 10715 10714 10719 10721 10722 10723 10730 10735 10740 10740 10745 10748 10750 10754 10755 10760 10767 10769 10768 10769 10770 10772 10773 10773 10774 10778 10779 10780 10778 10780 10780 10780 10779 10778 10775 10776 10777 10776 10774 10772 10771
10692 10694 10696 10695 10695 10699 10702 10704 10707 10712 10715 10721 10723 10730 10732 10736 10739 10741 10747 10754 10755 10755 10754 10756 10759 10762 10762 10763 10764 10768 10768 10768 10767 10767 10767 10767 10765 10763 10763 10763 10763 10762 10762
10670 10671 10673 10675 10674 10675 10677 10685 10686 10689 10692 10697 10703 10705 10712 10715 10719 10723 10727 10732 10737 10739 10739 10742 10743 10747 10750 10750 10750 10752 10754 10755 10757 10754 10755 10757 10754 10751 10750 10748 10749 10748 10748
10652 10651 10652 10654 10653 10650 10650 10653 10661 10663 10668 10671 10676 10679 10684 10693 10696 10702 10707 10712 10716 10718 10721 10723 10727 10731 10734 10735 10736 10737 10741 10740 10743 10742 10744 10744 10742 10741 10739 10738 10737 10736 10735
10627 10625 10624 10623 10624 10628 10624 10626 10632 10638 10643 10647 10650 10654 10655 10662 10672 10677 10685 10691 10696 10700 10702 10704 10710 10714 10715 10718 10719 10721 10724 10728 10726 10728 10729 10730 10729 10728 10726 10725 10724 10724 10722
10599 10598 10604 10605 10605 10607 10608 10603 10606 10613 10616 10618 10623 10630 10633 10632 10643 10655 10662 10668 10677 10682 10686 10686 10691 10695 10699 10701 10701 10703 10706 10710 10707 10712 10714 10715 10714 10714 10712 10711 10710 10712 10710
10582 10580 10575 10579 10579 10580 10584 10581 10581 10585 10587 10587 10595 10605 10610 10606 10614 10626 10637 10645 10654 10660 10667 10669 10671 10676 10680 10681 10682 10685 10686 10690 10692 10681 10696 10698 10699 10698 10697 10694 10694 10694 10691
10567 10565 10561 10555 10555 10557 10559 10559 10556 10557 10559 10564 10568 10575 10581 10583 10588 10600 10611 10620 10628 10638 10646 10651 10654 10658 10658 10658 10661 10665 10667 10670 10672 10669 10675 10680 10680 10680 10681 10681 10678 10675 10674